Location: Bremen
(53.0793°N, 8.8017°E)
Time: 12:00:29
(UTC+02:00)

Transit 2A Rocket - Pass Details

Date: 25 June 2024
Orbit: 582 x 910 km, 66.7° (Epoch: 19 July)

Event Time Altitude Azimuth Distance (km) Brightness Sun altitude
Rises 01:03:52 0° 290° (WNW) 3,334 8.7 -13.4°
Reaches altitude 10° 01:06:50 10° 306° (NW) 2,458 8.2 -13.4°
Maximum altitude 01:11:12 22° 356° (N) 1,832 8.0 -13.5°
Drops below altitude 10° 01:15:44 10° 45° (NE) 2,577 8.3 -13.5°
Sets 01:18:56 0° 61° (ENE) 3,540 8.8 -13.5°
